Waarnemingen

Advertentie
Mijn weer
Sa Pobla, Spanje (8312): temperatuur & dauwpunt: 16.08.2018 01:00:00 - 22.08.2018 01:00:00 (CEST)Sa Pobla, Spanje (8312): windsnelheid & windstoten: 16.08.2018 01:00:00 - 22.08.2018 01:00:00 (CEST)Sa Pobla, Spanje (8312): windrichting: 16.08.2018 01:00:00 - 22.08.2018 01:00:00 (CEST)Sa Pobla, Spanje (8312): luchtdruk: 16.08.2018 01:00:00 - 22.08.2018 01:00:00 (CEST)Sa Pobla, Spanje (8312): zicht: 16.08.2018 01:00:00 - 22.08.2018 01:00:00 (CEST)Sa Pobla, Spanje (8312): Zonneschijnduur: 16.08.2018 01:00:00 - 22.08.2018 01:00:00 (CEST)Sa Pobla, Spanje (8312): neerslag: 16.08.2018 01:00:00 - 22.08.2018 01:00:00 (CEST)
Datum & Tijd tt [°C] td [°C] ff [km/u] ff [kn] fx [km/u] fx [kn] dd ppp [hPa] vv [km] sd [min] rr [mm]
22.08.2018 01:00:00 - - - - - - - - - - -
22.08.2018 00:00:00 23,0 18,1 2 1 4 2 ZW 1016,6 20 0 0,0
21.08.2018 23:00:00 24,1 18,1 3 2 7 4 W 1016,7 17 0 0,0
21.08.2018 22:00:00 25,3 18,5 3 2 6 3 WNW 1016,5 8 0 0,0
21.08.2018 21:00:00 26,6 18,5 3 2 16 8 O 1016,2 20 12 0,0
21.08.2018 20:00:00 28,5 17,7 10 5 18 10 ONO 1016,0 20 60 -
21.08.2018 19:00:00 30,3 17,4 11 6 24 13 ONO 1015,7 20 60 0,0
21.08.2018 18:00:00 31,0 15,0 18 10 35 19 NNO 1015,5 20 60 0,0
21.08.2018 17:00:00 31,5 15,4 16 9 30 16 NNO 1015,8 20 60 0,0
21.08.2018 16:00:00 31,7 16,8 16 8 31 17 NO 1016,2 20 60 0,0
21.08.2018 15:00:00 31,3 16,5 21 12 34 19 NNO 1016,5 20 60 0,0
21.08.2018 14:00:00 31,5 17,1 19 10 32 18 NNO 1017,0 20 60 -
21.08.2018 13:00:00 30,9 15,7 17 9 34 18 N 1017,3 20 54 0,0
21.08.2018 12:00:00 30,2 15,9 16 9 32 18 N 1017,5 20 60 0,0
21.08.2018 11:00:00 30,0 16,4 15 8 30 16 N 1017,5 20 60 0,0
21.08.2018 10:00:00 28,4 14,6 4 2 8 5 NNO 1017,4 20 60 0,0
21.08.2018 09:00:00 23,5 16,3 2 1 8 5 ZZO 1017,5 20 59 0,0
21.08.2018 08:00:00 19,8 15,6 5 3 10 5 Z 1017,3 20 18 -
21.08.2018 07:00:00 19,2 15,3 4 2 11 6 ZZW 1016,9 20 0 0,0
21.08.2018 06:00:00 19,1 15,2 5 3 9 5 ZZW 1016,9 20 0 0,0
21.08.2018 05:00:00 19,1 15,3 4 2 7 4 ZW 1016,8 20 0 0,0
21.08.2018 04:00:00 19,5 15,3 4 2 8 4 ZZO 1016,9 20 0 0,0
21.08.2018 03:00:00 20,2 15,0 6 3 8 5 Z 1017,0 20 0 0,0
21.08.2018 02:00:00 21,2 14,6 3 2 12 7 ZZW 1017,4 20 0 -
21.08.2018 01:00:00 21,9 14,5 5 3 10 5 ZW 1017,8 20 0 0,0
21.08.2018 00:00:00 23,8 15,8 3 2 12 6 WNW 1017,8 20 0 0,0
20.08.2018 23:00:00 25,3 17,5 6 4 11 6 NO 1017,8 20 0 0,0
20.08.2018 22:00:00 25,5 14,3 7 4 13 7 N 1017,7 20 0 0,0
20.08.2018 21:00:00 27,7 12,1 10 5 19 11 NNO 1017,2 20 12 0,0
20.08.2018 20:00:00 29,9 10,4 14 7 22 12 NNO 1016,8 20 60 -
20.08.2018 19:00:00 31,3 11,1 10 6 24 13 NNW 1016,7 20 60 0,0
20.08.2018 18:00:00 31,7 12,0 14 8 30 16 NNO 1016,8 20 60 0,0
20.08.2018 17:00:00 32,2 11,9 16 8 32 17 N 1017,4 20 60 0,0
20.08.2018 16:00:00 32,2 12,4 20 11 42 23 NO 1017,9 20 60 0,0
20.08.2018 15:00:00 32,3 12,5 19 11 39 21 NNO 1018,4 20 60 0,0
20.08.2018 14:00:00 31,6 11,9 25 13 40 21 NNO 1018,4 20 60 -
20.08.2018 13:00:00 31,2 13,9 20 11 37 20 NNO 1018,8 20 60 0,0
20.08.2018 12:00:00 30,3 14,4 20 11 35 19 N 1018,9 20 60 0,0
20.08.2018 11:00:00 29,7 16,5 19 10 32 17 N 1018,9 20 60 0,0
20.08.2018 10:00:00 28,5 16,4 16 8 32 18 N 1018,9 20 60 0,0
20.08.2018 09:00:00 24,0 17,5 2 1 8 5 OZO 1018,7 20 60 0,0
20.08.2018 08:00:00 19,7 15,5 6 3 11 6 Z 1018,9 20 16 -
20.08.2018 07:00:00 19,0 15,1 7 4 11 6 ZZW 1018,4 20 0 0,0
20.08.2018 06:00:00 19,2 15,3 7 4 13 7 Z 1018,3 20 0 0,0
20.08.2018 05:00:00 19,5 15,3 10 5 14 7 ZZW 1018,4 20 0 0,0
20.08.2018 04:00:00 19,8 15,4 4 2 11 6 ZZW 1018,8 20 0 0,0
20.08.2018 03:00:00 20,4 15,4 7 4 11 6 ZZW 1018,9 20 0 0,0
20.08.2018 02:00:00 20,7 15,9 4 2 9 5 Z 1019,2 20 0 -
20.08.2018 01:00:00 21,9 15,7 3 2 10 6 ZW 1019,3 20 0 0,0
20.08.2018 00:00:00 22,0 16,0 2 1 8 4 N 1019,6 20 0 0,0
19.08.2018 23:00:00 23,5 15,5 4 2 12 6 Z 1019,4 20 0 0,0
19.08.2018 22:00:00 25,3 14,7 6 4 14 8 NNO 1018,9 20 0 0,0
19.08.2018 21:00:00 26,2 15,3 11 6 21 12 N 1018,9 20 12 0,0
19.08.2018 20:00:00 27,9 14,9 10 5 29 16 N 1019,0 20 60 -
19.08.2018 19:00:00 28,7 14,1 19 10 35 19 N 1019,3 20 60 0,0
19.08.2018 18:00:00 29,2 14,6 19 10 36 19 N 1019,5 20 60 0,0
19.08.2018 17:00:00 29,0 14,8 20 11 37 20 NNO 1019,6 20 60 0,0
19.08.2018 16:00:00 29,4 15,5 22 12 36 19 NNO 1019,7 20 59 0,0
19.08.2018 15:00:00 29,4 14,8 22 12 39 21 NNO 1020,3 20 60 0,0
19.08.2018 14:00:00 29,5 15,3 17 9 34 18 N 1020,4 20 56 -
19.08.2018 13:00:00 29,1 16,0 19 10 36 19 N 1020,4 20 57 0,0
19.08.2018 12:00:00 28,7 16,3 20 11 32 17 NNO 1020,6 20 54 0,0
19.08.2018 11:00:00 26,5 17,9 18 10 30 16 N 1020,8 20 33 0,0
19.08.2018 10:00:00 25,6 19,0 2 1 9 5 ONO 1020,4 20 60 0,0
19.08.2018 09:00:00 19,8 17,9 7 4 11 6 Z 1020,3 20 21 0,0
19.08.2018 08:00:00 18,4 17,1 6 3 11 6 Z 1020,2 20 5 -
19.08.2018 07:00:00 17,9 16,6 6 4 12 6 ZZW 1020,0 20 0 0,0
19.08.2018 06:00:00 17,7 16,6 8 4 11 6 Z 1020,1 20 0 0,0
19.08.2018 05:00:00 17,8 16,5 4 2 8 5 Z 1020,1 20 0 0,0
19.08.2018 04:00:00 18,4 16,9 6 3 11 6 ZZW 1020,2 20 0 0,0
19.08.2018 03:00:00 18,7 17,1 5 3 8 4 Z 1020,5 20 0 0,0
19.08.2018 02:00:00 19,4 16,5 4 2 9 5 Z 1020,5 20 0 -
19.08.2018 01:00:00 20,1 16,0 4 2 9 5 ZW 1020,9 20 0 0,0
19.08.2018 00:00:00 20,9 16,5 6 4 9 5 WZW 1021,0 20 0 0,0
18.08.2018 23:00:00 21,4 17,2 4 2 8 4 W 1020,9 20 0 0,0
18.08.2018 22:00:00 22,6 17,5 4 2 6 4 NW 1020,5 20 0 0,0
18.08.2018 21:00:00 24,3 16,8 4 2 15 8 N 1019,8 20 13 0,0
18.08.2018 20:00:00 25,6 16,5 8 5 19 10 N 1019,3 20 25 -
18.08.2018 19:00:00 26,1 16,4 13 7 26 14 NNO 1019,4 20 17 0,0
18.08.2018 18:00:00 27,5 16,1 14 8 24 13 NO 1019,4 20 54 0,0
18.08.2018 17:00:00 27,6 16,0 12 7 29 16 N 1019,8 20 40 0,0
18.08.2018 16:00:00 27,5 16,1 14 8 38 21 N 1020,0 20 50 0,0
18.08.2018 15:00:00 28,0 15,6 20 11 32 18 NNO 1019,7 20 50 0,0
18.08.2018 14:00:00 27,9 16,2 19 10 31 17 NNO 1019,9 20 55 -
18.08.2018 13:00:00 27,4 17,0 16 8 29 15 NO 1019,9 20 41 0,0
18.08.2018 12:00:00 27,0 17,2 19 10 29 16 NO 1020,2 20 51 0,0
18.08.2018 11:00:00 25,1 19,9 7 4 13 7 N 1020,2 20 24 0,2
18.08.2018 10:00:00 22,3 18,9 8 4 22 12 N 1020,1 16 2 0,4
18.08.2018 09:00:00 22,9 17,8 8 5 16 8 NNW 1019,9 20 1 0,0
18.08.2018 08:00:00 22,7 16,2 10 6 22 12 NNO 1019,1 20 0 -
18.08.2018 07:00:00 22,7 17,1 12 6 19 10 N 1018,7 20 0 0,0
18.08.2018 06:00:00 22,6 17,1 9 5 19 10 N 1018,3 20 0 0,0
18.08.2018 05:00:00 23,2 18,3 9 5 32 18 NNO 1018,4 20 0 0,2
18.08.2018 04:00:00 22,3 19,3 10 6 24 13 NNO 1018,1 20 0 0,0
18.08.2018 03:00:00 21,8 19,7 6 4 11 6 NNW 1018,4 20 0 0,0
18.08.2018 02:00:00 22,0 20,1 5 3 13 7 N 1018,9 20 0 -
18.08.2018 01:00:00 22,1 20,5 7 4 14 8 NW 1018,8 20 0 0,0
18.08.2018 00:00:00 21,8 20,5 5 3 14 7 WNW 1019,0 17 0 0,0
17.08.2018 23:00:00 21,7 20,2 3 2 14 7 NW 1018,5 20 0 0,0
17.08.2018 22:00:00 21,0 19,3 6 3 11 6 W 1017,5 20 0 0,0
17.08.2018 21:00:00 22,1 19,1 8 4 26 14 NNO 1017,5 20 0 0,0
17.08.2018 20:00:00 22,1 20,4 10 5 21 12 NNO 1018,2 20 0 -
17.08.2018 19:00:00 21,2 19,7 4 2 14 8 ZZW 1017,1 20 0 0,0
17.08.2018 18:00:00 20,5 18,8 8 4 20 11 ZZW 1017,6 20 0 3,0
17.08.2018 17:00:00 20,1 17,9 10 5 21 12 ZW 1017,8 20 0 1,4
17.08.2018 16:00:00 21,4 17,0 9 5 17 9 WZW 1018,0 20 0 0,6
17.08.2018 15:00:00 22,5 15,6 9 5 37 20 WNW 1018,3 20 0 0,0
17.08.2018 14:00:00 27,1 17,3 22 12 39 21 ZZO 1017,4 20 40 -
17.08.2018 13:00:00 30,9 16,5 12 6 24 13 NO 1016,8 20 60 0,0
17.08.2018 12:00:00 30,2 16,2 5 3 16 9 NO 1017,0 20 60 0,0
17.08.2018 11:00:00 28,5 17,7 5 3 11 6 NO 1017,3 20 60 0,0
17.08.2018 10:00:00 27,3 19,1 5 3 10 6 Z 1017,1 20 60 0,0
17.08.2018 09:00:00 24,0 19,5 3 2 9 5 Z 1016,9 20 60 0,0
17.08.2018 08:00:00 20,5 18,8 4 2 10 5 WZW 1016,6 20 16 -
17.08.2018 07:00:00 19,7 18,0 4 2 8 5 ZZW 1016,4 20 0 0,0
17.08.2018 06:00:00 20,3 18,4 3 2 9 5 WZW 1016,1 20 0 0,0
17.08.2018 05:00:00 20,5 17,7 3 1 6 3 ZW 1016,2 20 0 0,0
17.08.2018 04:00:00 21,0 17,8 4 2 8 4 Z 1016,3 20 0 0,0
17.08.2018 03:00:00 21,7 17,9 4 2 7 4 ZZW 1016,5 20 0 0,0
17.08.2018 02:00:00 22,2 18,0 4 2 8 5 WZW 1016,6 20 0 -
17.08.2018 01:00:00 22,5 17,9 5 3 8 4 ZZW 1017,0 20 0 0,0
17.08.2018 00:00:00 23,5 18,4 1 1 7 4 W 1016,9 20 0 0,0
16.08.2018 23:00:00 24,8 18,5 3 2 5 3 NNO 1016,2 20 0 0,0
16.08.2018 22:00:00 25,4 18,3 2 1 5 3 O 1016,1 20 0 0,0
16.08.2018 21:00:00 26,1 18,0 5 3 13 7 O 1015,2 20 12 0,0
16.08.2018 20:00:00 - - - - - - - - - - -
16.08.2018 19:00:00 27,6 17,8 6 3 12 7 N 1015,3 20 0 0,0
16.08.2018 18:00:00 27,4 17,5 4 2 13 7 O 1015,7 20 0 0,0
16.08.2018 17:00:00 27,2 18,2 10 5 24 13 ZO 1016,0 20 0 0,0
16.08.2018 16:00:00 28,4 17,6 14 8 28 15 O 1016,0 20 25 0,0
16.08.2018 15:00:00 31,5 17,4 16 8 25 14 NO 1016,0 20 60 0,0
16.08.2018 14:00:00 31,0 17,3 13 7 27 14 NO 1016,5 20 60 -
16.08.2018 13:00:00 30,7 17,4 14 7 26 14 NO 1016,7 20 59 0,0
16.08.2018 12:00:00 30,0 16,4 6 4 13 7 NNO 1017,3 20 60 0,0
16.08.2018 11:00:00 28,4 17,9 4 2 10 6 NO 1017,7 20 60 0,0
16.08.2018 10:00:00 25,9 17,5 5 3 9 5 Z 1017,3 20 60 0,0
16.08.2018 09:00:00 23,0 17,9 5 3 9 5 ZZW 1017,2 20 60 0,0
16.08.2018 08:00:00 19,7 17,6 5 3 10 5 Z 1017,3 20 15 -
16.08.2018 07:00:00 18,6 16,6 4 2 6 4 ZW 1017,2 20 0 0,0
16.08.2018 06:00:00 18,7 16,0 2 1 6 3 ZZW 1017,0 20 0 0,0
16.08.2018 05:00:00 19,0 15,9 3 2 7 4 ZZO 1017,0 20 0 0,0
16.08.2018 04:00:00 19,9 16,7 2 1 8 4 Z 1017,4 20 0 0,0
16.08.2018 03:00:00 20,4 16,4 4 2 9 5 ZZW 1017,6 20 0 0,0
16.08.2018 02:00:00 21,0 16,4 3 1 6 3 Z 1018,1 20 0 -
16.08.2018 01:00:00 21,9 16,8 2 1 10 5 ZW 1018,4 20 0 0,0

tt = temperatuur
td = dauwpunt
ff = windsnelheid
fx = windstoten
dd = windrichting
ppp = luchtdruk
vv = zicht
sd = Zonneschijnduur
rr = neerslag

Weerstations in de omgeving